Home   Weather   Angels Camp   Past weeks

Flag for USA Past Weather in Angels Camp, California, USA — Yesterday and Last 2 Weeks

65 °F

Passing clouds.

Feels Like: 65 °F
Forecast: 54 / 64 °F
Wind: 3 mph from North

Location: Modesto City-County-Sham Field

Current Time: Oct 27, 2016 at 7:48:33 PM

Latest Report: Oct 27, 2016 at 6:53 PM

Visibility: 9 mi

Pressure: 29.92 "Hg

Humidity: 78%

Dew Point: 58 °F

Location of Angels CampLocation

Past Weather in Angels Camp — Graph


Angels Camp Temperature Yesterday

Maximum temperature yesterday: 84 °F (at 3:53 PM)
Minimum temperature yesterday: 54 °F (at 4:53 AM)
Average temperature yesterday: 66 °F

High & Low Weather Summary for the Past Weeks

High84 °F (Oct 26, 3:53 PM)93% (Oct 15, 6:57 AM)30.21 "Hg (Oct 15, 6:57 AM)
Low51 °F (Oct 20, 3:53 AM)23% (Oct 26, 3:53 PM)29.75 "Hg (Oct 16, 3:53 PM)
Average66 °F61%29.97 "Hg
* Reported Oct 12 5:53 PM — Oct 27 5:53 PM, Angels Camp, Weather by CustomWeather, © 2016

Note: Actual official high and low records may vary slightly from our data, if they occured in-between our weather recording intervals... More about our weather records


Angels Camp Weather History for the Previous 24 Hours

Scroll right to see more
Time TempWeatherWind HumidityBarometerVisibility
5:53 PM
Thu, Oct 27
66 °FOvercast.3 mph73%29.93 "Hg10 mi
4:53 PM67 °FOvercast.3 mph71%29.93 "Hg10 mi
3:53 PM67 °FMostly cloudy.7 mph71%29.93 "Hg9 mi
2:53 PM67 °FBroken clouds.No wind68%29.93 "Hg10 mi
1:53 PM66 °FOvercast.5 mph70%29.95 "Hg10 mi
12:53 PM64 °FOvercast.5 mph75%29.96 "Hg9 mi
11:53 AM64 °FMore clouds than sun.6 mph75%29.97 "Hg10 mi
10:53 AM65 °FMostly cloudy.3 mph68%30.00 "Hg10 mi
9:53 AM63 °FLight rain. Broken clouds.8 mph73%29.98 "Hg9 mi
8:53 AM61 °FPartly sunny.6 mph78%29.98 "Hg10 mi
7:53 AM60 °FPassing clouds.6 mph78%29.95 "Hg10 mi
6:53 AM61 °FPassing clouds.No wind75%29.94 "Hg10 mi
5:53 AM60 °FClear.No wind78%29.93 "Hg9 mi
4:53 AM60 °FClear.No wind75%29.92 "Hg10 mi
3:53 AM59 °FClear.No wind78%29.94 "Hg9 mi
2:53 AM60 °FPassing clouds.3 mph75%29.97 "Hg9 mi
1:53 AM61 °FClear.No wind72%29.96 "Hg10 mi
12:53 AM62 °FClear.6 mph70%29.97 "Hg10 mi
11:53 PM
Wed, Oct 26
62 °FClear.5 mph73%29.98 "Hg10 mi
10:53 PM64 °FClear.6 mph70%29.97 "Hg10 mi
9:53 PM66 °FClear.9 mph65%29.97 "Hg10 mi
8:53 PM68 °FClear.13 mph57%29.95 "Hg10 mi
7:53 PM66 °FClear.No wind56%29.93 "Hg10 mi
Weather by CustomWeather, © 2016

See weather overviewHow to use our weather pages